This is the latest recevied weather packets stored in our database for station/object VE2XOX. If no packets are shown the sender has not sent any weather packets the latest 10 day(s).
| Time | Temp. | Humidity | Pressure | Rain* | Wind** | Luminosity | Snow |
|---|---|---|---|---|---|---|---|
| 1777812029 | 7.22° C | 57% | 1008.2 hPa | 0 mm | - | - | - |
| 1777811713 | 7.22° C | 60% | 1008.1 hPa | 0 mm | - | - | - |
| 1777811416 | 7.22° C | 58% | 1008.2 hPa | 0 mm | - | - | - |
| 1777811127 | 7.22° C | 62% | 1008.1 hPa | 0 mm | - | - | - |
| 1777810829 | 6.67° C | 65% | 1008.2 hPa | 0 mm | - | - | - |
| 1777810514 | 6.11° C | 67% | 1008.2 hPa | 0 mm | - | - | - |
| 1777810225 | 6.11° C | 72% | 1008.2 hPa | 0 mm | - | - | - |
| 1777809930 | 6.11° C | 74% | 1008.3 hPa | 0 mm | - | - | - |
| 1777809613 | 5.56° C | 76% | 1008.3 hPa | 0 mm | - | - | - |
| 1777809325 | 5.56° C | 80% | 1008.4 hPa | 0 mm | - | - | - |
| 1777809030 | 5° C | 80% | 1008.5 hPa | 0 mm | - | - | - |
| 1777808716 | 5° C | 80% | 1008.4 hPa | 0 mm | - | - | - |
| 1777808428 | 5.56° C | 81% | 1008.4 hPa | 0 mm | - | - | - |
| 1777808130 | 5.56° C | 82% | 1008.5 hPa | 0 mm | - | - | - |
| 1777807814 | 5° C | 83% | 1008.4 hPa | 0 mm | - | - | - |
| 1777807523 | 5° C | 84% | 1008.4 hPa | 0 mm | - | - | - |
| 1777807221 | 4.44° C | 85% | 1008.3 hPa | 0 mm | - | - | - |
| 1777806932 | 4.44° C | 87% | 1008.2 hPa | 0 mm | - | - | - |
| 1777806613 | 4.44° C | 88% | 1008.2 hPa | 0 mm | - | - | - |
| 1777806319 | 3.89° C | 89% | 1008.2 hPa | 0 mm | - | - | - |
| 1777806028 | 3.33° C | 90% | 1008.1 hPa | 0 mm | - | - | - |
| 1777805714 | 3.33° C | 91% | 1008.2 hPa | 0 mm | - | - | - |
| 1777805417 | 3.33° C | 91% | 1008.2 hPa | 0 mm | - | - | - |
| 1777805130 | 2.78° C | 91% | 1008.2 hPa | 0 mm | - | - | - |
| 1777804816 | 2.78° C | 91% | 1008.3 hPa | 0 mm | - | - | - |
* Rain latest hour (hover to see other rain measurements)
** Current wind speed in m/s (hover to see current wind gust speed)